www.pogodaiklimat.ru

Погода и климат >> Архив погоды >> Россия >> Дагестан >> Сергокала


ПОГОДА в Сергокале

  • Прогноз погоды в Сергокале
  • Монитор погоды в Сергокале

АРХИВ ПОГОДЫ в Сергокале

Время (UTC), дата Ветер
(напр.,м/с)
 
Видим.   Явления Облачность Т
(С)
Тd
(С)
f
(%)
Тe
(С)
Тes
(С)
Комфортность P
(гПа)
Po
(гПа)
Тmin
(С)
Tmax
(С)
R
(мм)
R24
(мм)
S
(см)
21 19.03 Ю 1 4000 м слаб. дождь 10/10 600 м
[Frnb Ns]
+2.9 +2.4 97 +1 +1 1025.2 962.2
00 20.03 С 2 4000 м слаб. дождь 10/10 600 м
[]
+3.2 +2.6 96 0 0 1023.9 961.1
03 20.03 штиль 0 4000 м слаб. дождь 10/10 600 м
[Frnb Ns]
+2.5 +1.7 94 +1 +1 1024.9 961.5 +2.5 6
06 20.03 СЗ 1 10 км {дождь} 10/10 600 м
[Sc]
+3.1 +1.3 88 +2 +2 1024.2 961.1
09 20.03 С 2 10 км 10/10 600 м
[Sc]
+3.8 +1.5 85 +1 +1 1024.0 961.3
12 20.03 В 2 4000 м дымка 10/10 600 м
[St]
+2.9 +1.8 92 -0 -0 1023.4 960.5
15 20.03 В 1 2000 м слаб. морось 10/10 300 м
[St]
+2.0 +1.4 96 0 0 1023.9 960.8 +4.3 0.0
18 20.03 С 1 4000 м дымка 10/10 600 м
[St]
+2.1 +1.8 98 0 0 1024.4 961.3
21 20.03 СЗ 1 10 км 10/10 600 м
[Sc]
+2.3 +1.6 95 0 0 1023.8 960.8
00 21.03 З 1 10 км 10/10 600 м
[Sc]
+3.4 +1.3 86 +2 +2 1022.5 959.8
03 21.03 ЮЗ 2 20 км 10/10 600 м
[Sc]
+3.2 +1.0 85 0 0 1022.7 959.9 +1.9
06 21.03 С 3 20 км 9/9 600 м
[Sc]
+3.2 +1.0 85 -1 -0 1022.7 960.8
09 21.03 СВ 2 10 км 9/9 600 м
[Sc]
+7.4 +2.4 71 +6 +7 1022.3 960.5
12 21.03 В 2 20 км 4/4 600 м
[Sc]
+8.7 +2.7 66 +7 +11 1020.8 959.4
15 21.03 ЮВ 2 20 км 3/3 600 м
[Sc]
+5.5 +1.5 75 +3 +3 1021.5 959.3 +9.2
18 21.03 З 1 4000 м 1/0 <50 м
[Ac trans]
+3.2 +0.8 84 +2 +2 1022.7 959.9
21 21.03 З 2 4000 м ясно +3.3 +0.7 83 0 0 1022.1 959.4
00 22.03 ЮЗ 3 4000 м ясно +3.7 +0.1 77 0 0 1021.6 959.0
03 22.03 З 2 10 км 9/8 600 м
[Sc Ac trans]
+5.0 +1.6 79 +2 +2 1021.8 959.5 +2.5
06 22.03 С 3 20 км 9/9 600 м
[Sc]
+7.0 +2.9 75 +4 +5 1022.2 960.3
09 22.03 С 5
{10}
10 км 10/10 600 м
[Frnb]
+5.7 +2.7 81 +1 +1 1021.5 959.4
12 22.03 С 3
{10}
20 км 10/10 600 м
[Sc]
+5.1 +2.0 80 +2 +2 1021.1 958.9
15 22.03 С 2 10 км {дождь} 10/10 600 м
[Frnb]
+4.2 +1.1 80 +2 +2 1021.7 959.2 +7.6
18 22.03 З 2 4000 м слаб. дождь 10/10 600 м
[Frnb Ns]
+3.6 +0.8 82 +1 +1 1022.9 960.2
21 22.03 ЮЗ 3 4000 м {дождь} 9/9 600 м
[Sc]
+4.0 +0.6 78 0 0 1020.5 958.1
00 23.03 ЮЗ 3 4000 м {дождь} 10/10 600 м
[Sc]
+3.2 -0.4 77 -1 -1 1019.2 956.6
03 23.03 ЮЗ 3 20 км 1/1 600 м
[Sc]
+2.1 -2.0 74 -2 -2 1017.4 954.7 +2.1 0.1
06 23.03 В 3 20 км 8/0
[As trans Ci fib]
+8.1 +0.7 60 +6 +9 1015.5 954.2 +1.9
09 23.03 В 7-10
{10}
20 км 9/1 600 м
[Sc As trans Ci fib]
+8.3 +3.3 71 +4 +6 1013.2 952.1
12 23.03 В 6
{11}
10 км 10/10 600 м
[Sc]
+5.2 +3.2 87 0 0 1012.9 951.2
15 23.03 ЮВ 4 4000 м дымка 10/10 600 м
[St]
+3.9 +3.2 95 -1 -1 1012.0 950.1 +9.0
18 23.03 штиль 0 4000 м 10/10 600 м
[St]
+3.5 +3.1 97 +2 +2 1012.5 950.5
21 23.03 СЗ 2 4000 м 10/10 600 м
[Sc]
+3.6 +2.4 92 +1 +1 1012.2 950.2
00 24.03 З 3
{12}
4000 м 10/10 600 м
[Sc]
+3.5 +1.6 87 -0 -0 1012.4 950.3
03 24.03 З 2 н/о н/о +1.6 +0.1 90 -2 -2 1013.4 950.9 +1.6
06 24.03 штиль 0 20 км 10/10 600 м
[Sc]
+5.4 +1.5 76 +5 +5 1013.7 952.0 +1.0
09 24.03 ЮВ 3 20 км 10/10 600 м
[Sc]
+4.3 +0.9 79 +1 +1 1014.5 952.4
12 24.03 С 7-12
{12}
20 км 10/10 600 м
[Sc]
+3.6 -0.7 73 -2 -2 1014.2 952.0
15 24.03 СЗ 7-11
{11}
10 км 10/10 600 м
[Sc]
+2.7 -3.1 66 -3 -3 1015.3 952.8 +5.5
18 24.03 ЮЗ 2
{11}
4000 м 10/10 600 м
[Sc]
+2.2 -1.3 78 -1 -1 1017.4 954.8
21 24.03 Ю 1 4000 м 10/10 600 м
[Sc]
+1.9 -2.9 70 +1 +1 1017.3 954.5
00 25.03 ЮЗ 2 4000 м 10/10 600 м
[Sc]
+2.4 -2.7 69 -0 -0 1017.8 955.1
03 25.03 СЗ 1 4000 м слаб. снег 10/10 600 м
[Frnb Ns]
+2.3 -2.9 68 +1 +1 1019.7 956.9 +1.8 0.1 <0.5
06 25.03 С 3 20 км {снег} 9/9 600 м
[Sc diur, vesp]
+3.5 -3.8 59 0 +1 1019.5 957.0
09 25.03 СВ 2 20 км 10/10 600 м
[Sc]
+3.4 -3.0 63 +1 +1 1018.5 956.0
12 25.03 ЮВ 1 20 км 10/10 600 м
[Sc]
+3.2 -1.7 70 +2 +2 1018.4 955.9
15 25.03 ЮВ 2 20 км 9/5 600 м
[Sc As trans]
+2.3 -1.2 78 -1 -1 1018.9 956.2 +3.8
18 25.03 З 1 4000 м 9/4 600 м
[Sc As trans]
+2.1 -1.4 78 +1 +1 1019.9 957.0
21 25.03 ЮЗ 3 4000 м 9/3 600 м
[Sc As trans]
+1.4 -2.1 77 -3 -3 1019.6 956.6
00 26.03 ЮЗ 2 4000 м 9/3 600 м
[Sc As trans]
+1.6 -2.8 73 -2 -2 1019.4 956.5
03 26.03 Ю 3 20 км 9/8 600 м
[Sc As trans]
+2.1 -3.5 66 -2 -2 1019.9 957.0 +1.2
06 26.03 ЮВ 6
{10}
20 км 10/4 600 м
[Sc Ac trans Ci fib]
+5.8 -3.6 51 +2 +2 1018.6 956.6
09 26.03 В 9-12
{13}
20 км 4/3 600 м
[Sc As trans]
+6.8 -0.5 60 +2 +3 1016.6 955.0
12 26.03 В 6
{14}
20 км 10/10 600 м
[Sc]
+4.3 +0.2 75 -1 -1 1016.2 954.0
15 26.03 ЮВ 5 10 км 10/10 600 м
[Sc]
+2.9 +1.1 88 -2 -2 1016.5 954.0 +7.3
18 26.03 ЮВ 3 10 км 10/10 600 м
[Sc]
+2.1 +1.5 96 -2 -2 1016.4 953.8

 

Местоположение метеостанции Сергокала (Дагестан, Россия): широта 42.45 долгота 47.67 высота над уровнем моря 518 м.

В архиве по умолчанию представлена погода в Сергокале за последнюю неделю. Архивные данные за месяц целиком и за предыдущие месяцы, начиная с января 2011 года, Вы можете получить, выбрав интересующий диапазон дат из раскрывающегося списка и нажав кнопку "Ввод!".


*Определитесь, кто Вы:
робот инопланетянин человек

Внимание! Время в таблицах - всемирное. Для получения местного времени необходимо прибавить поправку, которая равна 3 ч.

Смотрите также архив погоды в соседних городах и на ближайших метеорологических станциях:

Погода в Изберге (Дагестан, Россия) (22 км)
Погода в Куппе (Дагестан, Россия) (47 км)
Погода в Гунибе (Дагестан, Россия) (58 км)
Погода в Кумухе (Дагестан, Россия) (58 км)
Погода в Буйнакске (Дагестан, Россия) (61 км)
Погода в Махачкале (Дагестан, Россия) (65 км)
Погода в Дербенте (Дагестан, Россия) (67 км)
Погода в Хунзахе (Дагестан, Россия) (81 км)
Погода в Касумкенте (Дагестан, Россия) (95 км)
Погода в Ахты (Дагестан, Россия) (109 км)

Пояснения к столбцам:

Ветер - указаны скорость ветра в м/с - средняя за 10 мин, порывы в срок и между сроками (в фигурных скобках) и направление, откуда дует ветер: С - северный, СВ - северо-восточный, В - восточный, ЮВ - юго-восточный, Ю - южный, ЮЗ - юго-западный, З - западный, СЗ - северо-западный.
Видимость - горизонтальная дальность видимости в метрах или километрах. При видимости от 1 до 10 км при отсутствии осадков обычно наблюдается дымка, при ухудшении видимости до 1 км и менее - туман. В сухую погоду видимость может ухудшаться дымом, пылью или мглою.
Явления - указаны атмосферные явления, наблюдавшиеся в срок или в последний час перед сроком; фигурными скобками обозначены явления, наблюдавшиеся между сроками (за 1-3 часа до срока); квадратными скобками обозначены град или гололедные отложения с указанием их диаметра в мм.
Облачность - указаны через наклонную черту общая и нижняя облачность в баллах и высота нижней границы облаков в метрах; квадратными скобками обозначены формы облаков: Ci - перистые, Cs - перисто-слоистые, Cc - перисто-кучевые, Ac - высококучевые, As - высокослоистые, Sc - слоисто-кучевые, Ns - слоисто-дождевые, Cu - кучевые, Cb - кучево-дождевые. Подробнее классификацию облаков см. в Атласе облаков (PDF).
T - Температура воздуха - температура, измеренная на высоте 2 м над землей.
Td - Температура точки росы - температура, при понижении до которой содержащийся в воздухе водяной пар достигнет насыщения.
f - Относительная влажность воздуха - влажноcть воздуха, измеренная на высоте 2 м над землей.
Te - Эффективная температура - температура, которую ощущает одетый по сезону человек в тени. Характеристика душности погоды. При расчете учитывается влияние влажности воздуха и скорости ветра на теплоощущения человека.
Tes - Эффективная температура на солнце - температура, которую ощущает человек, с поправкой на солнечный нагрев. Характеристика знойности погоды. Зависит от высоты солнца над горизонтом, облачности и скорости ветра. Ночью, в пасмурную погоду, а также при ветре 12 м/с и более поправка равна нулю.
P - Атмосферное давление - приведенное к уровню моря атмосферное давление.
Po - Атмосферное давление - измеренное на уровне метеостанции атмосферное давление.
Tmin - Минимальная температура - минимум температуры воздуха на высоте 2 м над землей.
Tmax - Максимальная температура - максимум температуры воздуха на высоте 2 м над землей.
R - Количество осадков - Количество выпавших осадков за период времени, мм. При наведении курсора мыши на число - период времени, за который выпало указанное количество осадков.
R24 - Количество осадков - Количество выпавших осадков за 24 часа, мм.
S - Снежный покров - Высота снежного покрова, см. При наведении курсора мыши на число - состояние снежного покрова и степень покрытия местности в баллах.